[[{"header":{"parameterUnit":"m.s-1","parameterCategory":1,"la1":30.2991,"la2":30.254,"lo1":-89.0895,"lo2":-89.0444,"dy":0.0017,"dx":0.0017,"nx":28,"ny":28,"refTime":"2023-09-05T09:00:00:Z","depth":0,"parameterNumber":2,"parameterNumberName":"U-component_of_WINDS"},"data":[0,0,0,0,0,0,0,0,0,0,0,0,0,0,0,0,0,0,0,0,0,0,0,0,0,0,0,0,0,0,0,0,0,0,0,0,0,0,0,0,0,0,0,0,0,0,0,0,0,0,0,0,0,0,0,0,0,0,-2.1091,-2.109,0,-2.1046,-2.1046,-2.1045,-2.0995,-2.0995,-2.0994,-2.0993,-2.095,-2.0949,-2.0949,0,0,0,0,0,0,0,0,0,0,0,0,0,-2.1133,-2.1132,-2.1091,-2.109,-2.1089,-2.1046,-2.1046,-2.1045,-2.0996,-2.0995,-2.0994,-2.0993,-2.095,-2.0949,-2.0949,0,0,0,0,0,0,0,0,0,0,0,0,0,-2.1104,-2.1132,-2.1091,-2.1059,-2.1056,-2.1047,-2.1046,-2.1045,-2.0996,-2.0995,-2.0993,-2.0992,-2.095,-2.0949,-2.0949,-2.0967,0,0,-2.0946,-2.0946,0,0,0,0,0,0,0,0,-2.1106,-2.1103,-2.1065,-2.1062,-2.1058,-2.1025,-2.1045,-2.1019,-2.0996,-2.1019,-2.0993,-2.0992,-2.0976,-2.0973,-2.0967,-2.0965,-2.0963,-2.0946,-2.0946,-2.0946,-2.0945,0,0,0,0,0,0,0,-2.1108,-2.1104,-2.1073,-2.1064,-2.106,-2.1048,-2.1043,-2.1039,-2.1004,-2.1017,-2.1013,-2.1008,-2.0974,-2.0968,-2.0966,-2.0962,-2.0946,-2.0946,-2.0945,-2.0945,-2.0971,-2.0972,0,0,0,0,0,0,-2.1114,-2.1106,-2.1074,-2.1072,-2.108,-2.1048,-2.1042,-2.1037,-2.1004,-2.0998,-2.1009,-2.1006,-2.097,-2.0967,-2.0964,-2.0982,-2.0946,-2.0945,-2.0945,-2.097,-2.0971,-2.0972,0,0,0,0,0,0,-2.1115,-2.1112,-2.1076,-2.1088,-2.1082,-2.1048,-2.1043,-2.1037,-2.1031,-2.0998,-2.0992,-2.101,-2.0969,-2.0965,-2.0966,-2.098,-2.0945,-2.0944,-2.0968,-2.097,-2.0972,-2.1018,0,0,0,0,0,0,-2.1117,-2.1113,-2.1119,-2.1088,-2.1082,-2.1079,-2.1044,-2.1037,-2.1029,-2.1025,-2.0997,-2.0991,-2.0967,-2.0967,-2.0965,-2.0978,-2.0944,-2.0967,-2.0969,-2.0971,-2.1015,-2.1021,-2.1026,0,0,0,0,0,-2.1119,-2.1135,-2.112,-2.1116,-2.1089,-2.108,-2.1076,-2.1048,-2.1031,-2.1037,-2.1016,-2.0992,-2.0979,-2.0968,-2.0965,-2.0978,-2.0966,-2.0968,-2.0971,-2.1013,-2.102,-2.1026,0,0,0,0,0,0,-2.1168,-2.113,-2.1113,-2.112,-2.1103,-2.1071,-2.1078,-2.1056,-2.1045,-2.1041,-2.1007,-2.1001,-2.1006,-2.0992,-2.0981,-2.0993,-2.0969,-2.0971,-2.1002,-2.1008,-2.1014,-2.1017,-2.0943,0,0,0,0,0,-2.118,-2.1175,-2.1142,-2.1151,-2.1144,-2.1113,-2.1107,-2.1087,-2.1069,-2.1062,-2.1041,-2.1025,-2.1016,-2.1012,-2.1002,-2.1013,-2.1006,-2.1021,-2.1026,-2.1031,-2.1033,-2.1036,-2.1042,-2.098,-2.098,-2.098,0,0,-2.1204,-2.1183,-2.1182,-2.1161,-2.1145,-2.1141,-2.1107,-2.1104,-2.1101,-2.1061,-2.106,-2.1045,-2.1024,-2.103,-2.1031,-2.1018,-2.1049,-2.1034,-2.1038,-2.1037,-2.104,-2.1046,-2.1051,-2.0982,-2.0982,-2.0981,0,0,-2.1246,-2.123,-2.1235,-2.122,-2.1197,-2.1176,-2.1177,-2.1149,-2.1136,-2.1135,-2.1105,-2.11,-2.1087,-2.1073,-2.1065,-2.11,-2.1078,-2.1099,-2.1127,-2.1131,-2.1136,-2.114,-2.1152,-2.1156,-2.1101,-2.1101,-2.1101,0,-2.1279,-2.1271,-2.124,-2.1239,-2.123,-2.1193,-2.1198,-2.1186,-2.1161,-2.1156,-2.1142,-2.1124,-2.1108,-2.1109,-2.1117,-2.1112,-2.1112,-2.1101,-2.1138,-2.1141,-2.1145,-2.1156,-2.116,-2.1103,-2.1103,-2.1103,-2.1103,0,-2.1312,-2.1307,-2.1314,-2.1291,-2.1283,-2.1285,-2.1254,-2.125,-2.123,-2.121,-2.1209,-2.1188,-2.1173,-2.1172,-2.1153,-2.117,-2.1163,-2.1144,-2.1119,-2.1154,-2.1163,-2.1167,-2.1107,-2.1106,-2.1105,-2.1105,0,0,-2.1384,-2.1343,-2.1346,-2.1334,-2.1306,-2.1302,-2.1302,-2.1286,-2.1283,-2.1268,-2.1266,-2.1256,-2.1237,-2.1228,-2.1207,-2.121,-2.1238,-2.119,-2.1189,-2.1199,-2.1255,-2.1269,-2.1274,-2.1224,-2.1224,-2.1225,-2.1256,0,-2.142,-2.1417,-2.1389,-2.1394,-2.1388,-2.1353,-2.1353,-2.1336,-2.1318,-2.1311,-2.1291,-2.1283,-2.126,-2.1254,-2.1256,-2.1235,-2.1249,-2.1232,-2.1222,-2.1222,-2.1227,-2.1279,-2.1294,-2.1324,-2.126,-2.126,-2.1261,0,-2.1462,-2.1448,-2.1452,-2.1422,-2.1419,-2.1419,-2.1403,-2.1396,-2.1376,-2.1362,-2.1351,-2.1327,-2.1325,-2.1302,-2.1298,-2.1287,-2.1281,-2.127,-2.1271,-2.1268,-2.1243,-2.1277,-2.1334,-2.1338,-2.1267,-2.1266,-2.1266,0,-2.1512,-2.1495,-2.1494,-2.1486,-2.1452,-2.1453,-2.1439,-2.1417,-2.1409,-2.1395,-2.139,-2.1376,-2.1368,-2.1358,-2.1331,-2.1317,-2.133,-2.1305,-2.1318,-2.1318,-2.1321,-2.1321,-2.1377,-2.132,-2.132,-2.132,-2.1319,0,-2.1555,-2.1559,-2.1516,-2.1516,-2.1519,-2.1487,-2.1491,-2.1473,-2.1454,-2.145,-2.142,-2.1417,-2.1381,-2.1374,-2.1353,-2.1352,-2.135,-2.1338,-2.1332,-2.134,-2.1342,-2.1335,-2.1332,-2.1321,-2.132,-2.132,-2.132,0,-2.1612,-2.1584,-2.1581,-2.1549,-2.1541,-2.1544,-2.1517,-2.1515,-2.1495,-2.149,-2.1487,-2.1455,-2.1445,-2.1417,-2.14,-2.1386,-2.1391,-2.1381,-2.1397,-2.1393,-2.1408,-2.1406,-2.146,-2.1465,-2.1406,-2.1407,-2.1407,0,-2.164,-2.1642,-2.161,-2.1604,-2.1591,-2.1583,-2.1575,-2.1543,-2.1536,-2.1512,-2.1513,-2.15,-2.1488,-2.1474,-2.1449,-2.1436,-2.1425,-2.1444,-2.1422,-2.143,-2.1423,-2.1423,-2.1423,-2.1449,-2.145,-2.1451,-2.1451,0,-2.1694,-2.1679,-2.1668,-2.1652,-2.1643,-2.1629,-2.1613,-2.161,-2.1575,-2.1568,-2.1557,-2.1547,-2.1529,-2.1516,-2.1499,-2.1485,-2.1462,-2.1458,-2.146,-2.1468,-2.1477,-2.1471,-2.1409,-2.1457,-2.1456,-2.1456,-2.1456,-2.1455,-2.1736,-2.1736,-2.1712,-2.1701,-2.1685,-2.1671,-2.1668,-2.1646,-2.1636,-2.1618,-2.16,-2.1591,-2.1569,-2.1543,-2.1531,-2.1523,-2.1511,-2.1514,-2.1515,-2.1516,-2.1519,-2.1479,-2.152,-2.1519,-2.1519,-2.1519,-2.1519,0,-2.1787,-2.177,-2.1759,-2.1738,-2.1729,-2.1707,-2.1688,-2.1682,-2.1674,-2.1656,-2.1644,-2.163,-2.1618,-2.1592,-2.1577,-2.1576,-2.1565,-2.1573,-2.1572,-2.1569,-2.1531,-2.153,-2.1582,-2.1582,-2.1582,-2.1582,-2.1582,-2.1582,-2.1812,-2.1809,-2.1792,-2.1782,-2.1765,-2.1754,-2.1745,-2.1732,-2.1717,-2.1703,-2.1692,-2.1675,-2.1653,-2.1637,-2.1624,-2.1617,-2.1612,-2.1623,-2.1613,-2.1578,-2.1572,-2.1566,-2.1565,-2.1623,-2.1623,-2.1651,-2.1651,-2.1651]},{"header":{"parameterUnit":"m.s-1","parameterCategory":1,"la1":30.2991,"la2":30.254,"lo1":-89.0895,"lo2":-89.0444,"dy":0.0017,"dx":0.0017,"nx":28,"ny":28,"refTime":"2023-09-05T09:00:00:Z","depth":0,"parameterNumber":3,"parameterNumberName":"V-component_of_WINDS"},"data":[0,0,0,0,0,0,0,0,0,0,0,0,0,0,0,0,0,0,0,0,0,0,0,0,0,0,0,0,0,0,0,0,0,0,0,0,0,0,0,0,0,0,0,0,0,0,0,0,0,0,0,0,0,0,0,0,0,0,-2.2343,-2.2341,0,-2.2098,-2.2095,-2.2092,-2.195,-2.1949,-2.1949,-2.1948,-2.1688,-2.1681,-2.1675,0,0,0,0,0,0,0,0,0,0,0,0,0,-2.2679,-2.2674,-2.2344,-2.234,-2.2337,-2.2098,-2.2095,-2.2091,-2.195,-2.1949,-2.1948,-2.1948,-2.169,-2.1682,-2.1675,0,0,0,0,0,0,0,0,0,0,0,0,0,-2.2493,-2.2672,-2.2344,-2.2238,-2.2226,-2.2099,-2.2095,-2.209,-2.195,-2.1949,-2.1948,-2.1947,-2.1692,-2.1683,-2.1673,-2.163,0,0,-2.1644,-2.164,0,0,0,0,0,0,0,0,-2.2504,-2.2481,-2.2257,-2.2245,-2.2232,-2.2054,-2.2117,-2.1936,-2.195,-2.2054,-2.1948,-2.1947,-2.181,-2.179,-2.1746,-2.1618,-2.1606,-2.1643,-2.1637,-2.1633,-2.163,0,0,0,0,0,0,0,-2.2517,-2.2491,-2.2246,-2.2254,-2.2238,-2.2199,-2.2172,-2.2082,-2.1939,-2.2045,-2.2034,-2.2008,-2.1802,-2.1755,-2.1738,-2.1603,-2.1643,-2.1635,-2.1629,-2.1625,-2.1421,-2.1422,0,0,0,0,0,0,-2.2548,-2.2503,-2.2254,-2.2238,-2.2369,-2.2194,-2.2163,-2.2111,-2.194,-2.1913,-2.2009,-2.2002,-2.1772,-2.175,-2.1729,-2.1663,-2.1633,-2.1624,-2.1619,-2.1421,-2.1422,-2.1422,0,0,0,0,0,0,-2.2556,-2.2528,-2.2264,-2.2367,-2.2331,-2.2189,-2.2132,-2.2107,-2.206,-2.1912,-2.1885,-2.1988,-2.1771,-2.1742,-2.1655,-2.1652,-2.162,-2.1611,-2.1421,-2.1421,-2.1422,-2.1535,0,0,0,0,0,0,-2.2566,-2.2531,-2.2516,-2.2368,-2.2326,-2.2198,-2.2132,-2.2103,-2.2044,-2.2033,-2.1885,-2.186,-2.1768,-2.167,-2.1646,-2.1639,-2.1603,-2.142,-2.1421,-2.1422,-2.1531,-2.1539,-2.1547,0,0,0,0,0,-2.2579,-2.2556,-2.2516,-2.2487,-2.2304,-2.2198,-2.2173,-2.2071,-2.2045,-2.2026,-2.1931,-2.1864,-2.1657,-2.1663,-2.1633,-2.1624,-2.142,-2.1421,-2.1422,-2.1527,-2.1538,-2.1546,0,0,0,0,0,0,-2.2705,-2.2535,-2.2488,-2.2418,-2.2324,-2.2174,-2.2148,-2.2086,-2.1994,-2.1987,-2.1861,-2.1828,-2.1753,-2.1679,-2.1688,-2.157,-2.1531,-2.1526,-2.1621,-2.163,-2.1638,-2.1656,-2.1595,0,0,0,0,0,-2.2725,-2.2656,-2.251,-2.2462,-2.2417,-2.2291,-2.2241,-2.217,-2.2066,-2.2024,-2.1923,-2.1822,-2.1733,-2.1677,-2.1588,-2.152,-2.1483,-2.1498,-2.1506,-2.1513,-2.151,-2.1464,-2.1468,-2.1425,-2.1425,-2.1425,0,0,-2.2765,-2.2663,-2.2627,-2.2485,-2.2403,-2.2331,-2.2258,-2.2186,-2.2129,-2.2012,-2.1924,-2.1846,-2.1724,-2.1645,-2.1605,-2.1582,-2.1514,-2.1514,-2.1521,-2.1513,-2.1466,-2.147,-2.1474,-2.1425,-2.1425,-2.1425,0,0,-2.28,-2.2718,-2.2668,-2.2588,-2.2466,-2.2382,-2.237,-2.2229,-2.2174,-2.2084,-2.1993,-2.1923,-2.1774,-2.169,-2.1628,-2.163,-2.1563,-2.1604,-2.1645,-2.1602,-2.1605,-2.1607,-2.1605,-2.1606,-2.1601,-2.1601,-2.1602,0,-2.2864,-2.2755,-2.2649,-2.2581,-2.2519,-2.2412,-2.2358,-2.2284,-2.2139,-2.2097,-2.2073,-2.1882,-2.1793,-2.1692,-2.1692,-2.1646,-2.1625,-2.162,-2.1614,-2.1615,-2.1615,-2.1611,-2.1611,-2.1607,-2.1606,-2.1606,-2.1605,0,-2.2838,-2.2763,-2.2736,-2.2601,-2.2536,-2.2476,-2.2357,-2.2303,-2.2237,-2.2155,-2.2062,-2.1951,-2.1836,-2.1807,-2.1741,-2.1694,-2.1683,-2.1639,-2.1596,-2.1627,-2.1621,-2.1619,-2.1615,-2.1613,-2.1611,-2.161,0,0,-2.2945,-2.2752,-2.2744,-2.268,-2.2537,-2.2475,-2.2408,-2.2298,-2.2253,-2.2155,-2.2093,-2.1969,-2.1926,-2.1855,-2.1779,-2.1742,-2.1746,-2.17,-2.1695,-2.171,-2.1683,-2.1717,-2.1717,-2.1702,-2.1701,-2.17,-2.1692,0,-2.2958,-2.2836,-2.2738,-2.265,-2.2578,-2.2474,-2.2414,-2.2318,-2.2239,-2.2162,-2.2072,-2.1986,-2.1937,-2.1893,-2.1852,-2.1755,-2.1738,-2.1754,-2.1638,-2.1635,-2.1671,-2.1714,-2.175,-2.1748,-2.169,-2.1689,-2.1689,0,-2.2957,-2.2866,-2.2772,-2.2635,-2.26,-2.255,-2.2439,-2.2369,-2.2256,-2.22,-2.2121,-2.2042,-2.1961,-2.1928,-2.1813,-2.1826,-2.1772,-2.1717,-2.1714,-2.1697,-2.1663,-2.1697,-2.1745,-2.1745,-2.1685,-2.1685,-2.1685,0,-2.3042,-2.2895,-2.2819,-2.2768,-2.2607,-2.2573,-2.2503,-2.239,-2.2329,-2.2231,-2.2189,-2.2083,-2.2024,-2.1942,-2.1834,-2.182,-2.1728,-2.1687,-2.1676,-2.1679,-2.1661,-2.1663,-2.1699,-2.163,-2.163,-2.163,-2.163,0,-2.3065,-2.3011,-2.2855,-2.2809,-2.2744,-2.263,-2.2567,-2.2488,-2.2388,-2.232,-2.2223,-2.2161,-2.2024,-2.1944,-2.1859,-2.1774,-2.1749,-2.1698,-2.1676,-2.1706,-2.1712,-2.1668,-2.1665,-2.163,-2.163,-2.163,-2.163,0,-2.3148,-2.3043,-2.2953,-2.2808,-2.277,-2.2728,-2.2601,-2.2549,-2.2465,-2.238,-2.2354,-2.2219,-2.212,-2.2005,-2.1867,-2.1809,-2.1731,-2.1699,-2.177,-2.1757,-2.1752,-2.1753,-2.1759,-2.1753,-2.1692,-2.1693,-2.1693,0,-2.3169,-2.3126,-2.2976,-2.2926,-2.286,-2.278,-2.2718,-2.2603,-2.2541,-2.2408,-2.2372,-2.2266,-2.2175,-2.202,-2.1907,-2.1801,-2.1764,-2.1773,-2.1747,-2.1778,-2.176,-2.1764,-2.1757,-2.178,-2.1782,-2.1783,-2.1783,0,-2.3217,-2.3167,-2.3083,-2.298,-2.291,-2.2822,-2.2731,-2.2694,-2.2559,-2.2494,-2.2393,-2.2323,-2.2183,-2.2077,-2.1956,-2.1879,-2.1807,-2.1793,-2.1784,-2.1813,-2.1856,-2.183,-2.1787,-2.1793,-2.1792,-2.1791,-2.1791,-2.179,-2.3267,-2.3223,-2.3111,-2.302,-2.2939,-2.2855,-2.2799,-2.2708,-2.2623,-2.2502,-2.2438,-2.2337,-2.2221,-2.2051,-2.1977,-2.1893,-2.1869,-2.1857,-2.1854,-2.1852,-2.186,-2.1871,-2.1871,-2.187,-2.187,-2.187,-2.1869,0,-2.3308,-2.3231,-2.3149,-2.3024,-2.2952,-2.2894,-2.2789,-2.2731,-2.2645,-2.2544,-2.2457,-2.2339,-2.2236,-2.2115,-2.2002,-2.1958,-2.1922,-2.1932,-2.1933,-2.1916,-2.1889,-2.1907,-2.1963,-2.1963,-2.1963,-2.1963,-2.1963,-2.1963,-2.332,-2.3241,-2.3178,-2.3056,-2.2977,-2.2881,-2.2825,-2.2745,-2.2664,-2.2538,-2.2453,-2.2376,-2.2265,-2.2144,-2.2045,-2.2011,-2.1973,-2.1993,-2.195,-2.1926,-2.1918,-2.1911,-2.1926,-2.1986,-2.1986,-2.1983,-2.1983,-2.1983]}]]